User: anonymous   Login
Location: Robert Brownlee Observatory
(34.2308°N, 117.2089°W)
Time: 20:54:19
(UTC-07:00)
Language:

Cosmos 1943 - Orbit

View from above orbital plane
View from above orbital plane
View from above satellite
View from above satellite

Ground track
Ground track

The orbit data is extracted from the following two-line orbital elements,

1 19119U 88039A   17290.32613882 +.00000259 +00000-0 +15787-3 0  9998
2 19119 071.0038 205.2858 0013320 237.8185 238.3110 14.15100656519108
Epoch (UTC): 17 October 2017 07:49:38
Eccentricity: 0.0013320
inclination: 71.0038°
perigee height: 832 km
apogee height: 851 km
right ascension of ascending node: 205.2858°
argument of perigee: 237.8185°
revolutions per day: 14.15100656
mean anomaly at epoch: 238.3110°
orbit number at epoch: 51910

The dashed part of the orbit path shows where the satellite is in the earth's shadow,  

DLR